Location: Hope
(40.9110°N, 74.9680°W)
Time: 04:25:48
(UTC-05:00)

OTV 5 (USA 277) - Pass Details

Date: 26 January 2019
Orbit: 342 x 346 km, 54.5° (Epoch: 09 February)

Event Time Altitude Azimuth Distance (km) Brightness Sun altitude
Exits shadow 06:23:44 - 231° (SW) 1,743 ? -10.1°
Reaches altitude 10° 06:24:49 10° 232° (SW) 1,286 ? -9.9°
Maximum altitude 06:27:40 77° 318° (NW) 355 ? -9.3°
Drops below altitude 10° 06:30:33 10° 46° (NE) 1,294 ? -8.8°
Sets 06:32:33 0° 48° (NE) 2,138 ? -8.5°
